DateTimeUTC,F1_A11,F1_S11,BsB_S11,BsG_S11,BsR_S11,BbsB_S11,BbsG_S11,BbsR_S11,BaB_A11,BaG_A11,BaR_A11,Tu_S11,T_S11,Uu_S11,U_S11,P_S11,T1_A11
2021-07-03T11:00:00Z,00000200,20000000,,,,,,,-000.31,-000.46,-000.02,18.5,25.1,06.1,04.1,0673.2,31.1
2021-07-03T11:01:00Z,00000200,20000000,,,,,,,-000.18,0000.52,0000.07,18.5,25.1,06.1,04.1,0673.2,31.1
2021-07-03T11:02:00Z,00000200,20000000,,,,,,,0000.22,0000.04,0000.11,18.5,25.1,06.1,04.1,0673.2,31.0
2021-07-03T11:03:00Z,00000200,60000000,,,,,,,0000.25,0000.08,0000.03,18.5,25.1,06.1,04.1,0673.2,31.0
2021-07-03T11:04:00Z,00000200,40000000,0000.41,-000.09,0000.28,0000.07,0000.00,-000.02,-000.02,0000.09,-000.13,18.5,24.8,06.4,04.3,0674.1,31.0
2021-07-03T11:05:00Z,00000200,00000000,0000.38,0000.24,0000.34,-000.50,-000.06,0000.18,0000.24,-000.20,0000.59,18.5,24.8,06.4,04.3,0674.1,31.0
2021-07-03T11:06:00Z,00000200,00000000,0000.07,0000.30,0000.31,-000.06,0000.07,0000.27,0000.10,0000.25,-000.03,18.5,24.7,06.5,04.4,0674.1,31.0
2021-07-03T11:07:00Z,00000200,00000000,0000.00,0000.28,0000.32,0000.37,0000.31,0000.03,-000.00,-000.22,-000.34,18.5,24.7,06.5,04.4,0674.1,31.0
2021-07-03T11:08:00Z,00000200,00000000,-000.01,0000.26,0000.29,-000.01,0000.12,0000.10,-000.02,0000.34,0000.28,18.5,24.7,06.5,04.4,0674.1,31.1
2021-07-03T11:09:00Z,00000200,00000000,0000.18,0000.19,0000.55,-000.45,0000.05,0000.12,0000.06,0000.13,0000.16,18.6,24.8,06.6,04.5,0674.1,31.1
2021-07-03T11:10:00Z,00000200,00000000,-000.53,0000.65,0000.33,0000.19,-000.20,-000.14,0000.21,-000.02,-000.10,18.6,24.8,06.6,04.5,0674.1,31.1
2021-07-03T11:11:00Z,00000200,00000000,0000.58,0000.11,0000.03,0000.36,-000.07,0000.10,-000.09,-000.01,-000.15,18.6,24.8,06.5,04.5,0674.1,31.1
2021-07-03T11:12:00Z,00000200,00000000,0000.77,0000.37,0000.25,0000.12,-000.00,0000.20,0000.06,0000.01,0000.21,18.6,24.8,06.6,04.5,0674.1,31.1
2021-07-03T11:13:00Z,00000200,00000000,0000.47,0000.00,0000.43,-000.35,-000.24,-000.15,0000.46,0000.10,0000.15,18.6,24.8,06.6,04.5,0674.1,31.1
2021-07-03T11:14:00Z,00000200,00000000,-000.06,0000.52,0000.05,0000.18,0000.25,0000.06,-000.35,-000.01,-000.02,18.6,24.8,06.6,04.5,0674.0,31.1
2021-07-03T11:15:00Z,00000200,00000000,-000.02,0000.15,0000.45,-000.18,0000.37,0000.02,0000.14,0000.09,0000.25,18.6,24.8,06.6,04.5,0674.1,31.1
2021-07-03T11:16:00Z,00000200,00000000,0000.13,-000.15,0000.17,0000.39,0000.13,-000.13,0000.18,0000.24,-000.44,18.5,24.7,06.6,04.5,0674.1,31.0
2021-07-03T11:17:00Z,00000200,00000000,-000.12,0000.20,0000.44,-000.22,0000.10,-000.03,-000.09,-000.24,0000.14,18.5,24.7,06.7,04.6,0674.1,31.0
2021-07-03T11:18:00Z,00000200,00000000,-000.16,0000.15,0000.26,-000.09,0000.12,0000.24,0000.24,0000.02,0000.27,18.5,24.7,06.7,04.6,0674.1,31.1
2021-07-03T11:19:00Z,00000200,00000000,0001.01,0000.34,0000.34,0000.08,-000.07,0000.09,0000.04,0000.21,0000.26,18.5,24.7,06.8,04.6,0674.1,31.0
2021-07-03T11:20:00Z,00000200,00000000,0000.05,0000.10,0000.36,-000.05,-000.15,0000.28,0000.17,0000.03,-000.06,18.5,24.7,06.7,04.6,0674.0,31.0
2021-07-03T11:21:00Z,00000200,00000000,-000.22,0000.36,0000.33,-000.26,0000.03,0000.15,0000.26,0000.31,0000.22,18.5,24.7,06.7,04.6,0674.0,31.0
2021-07-03T11:22:00Z,00000200,00000000,0000.52,0000.03,0000.39,0000.37,0000.09,0000.12,-000.33,0000.03,0000.03,18.4,24.7,06.8,04.7,0674.0,31.0
2021-07-03T11:23:00Z,00000200,00000000,0001.09,0000.65,0000.03,-000.29,0000.19,0000.31,0000.45,0000.20,-000.06,18.5,24.7,06.8,04.6,0674.0,31.1
2021-07-03T11:24:00Z,00000200,00000000,-000.38,0000.50,0000.17,0000.07,-000.21,-000.05,-000.01,-000.18,-000.04,18.5,24.7,06.8,04.7,0674.1,31.1
2021-07-03T11:25:00Z,00000200,00000000,-000.00,0000.26,0000.20,-000.21,0000.03,0000.35,-000.14,0000.25,0000.25,18.7,24.7,06.7,04.6,0674.0,31.1
2021-07-03T11:26:00Z,00000200,00000000,0000.61,0000.14,0000.05,0000.08,0000.32,-000.09,0000.18,0000.04,-000.24,18.7,24.8,06.9,04.8,0674.0,31.1
2021-07-03T11:27:00Z,00000200,00000000,0001.15,0000.37,0000.22,0000.70,0000.37,0000.13,0000.03,0000.32,0000.17,18.8,24.8,06.9,04.8,0674.0,31.1
2021-07-03T11:28:00Z,00000200,00000000,0000.64,0000.41,0000.18,0000.12,0000.01,0000.18,0000.16,-000.28,-000.02,18.8,24.8,06.8,04.7,0674.2,31.1
2021-07-03T11:29:00Z,00000200,00000000,0000.48,0000.33,0000.26,-000.03,-000.03,0000.27,0000.06,0000.11,0000.03,18.8,24.9,06.9,04.8,0674.1,31.1
2021-07-03T11:30:00Z,00000200,00000000,0000.33,0000.50,0000.23,-000.02,0000.10,0000.15,0000.04,-000.27,0000.18,18.8,24.8,06.9,04.7,0674.1,31.1
2021-07-03T11:31:00Z,00000200,00000000,0000.03,0000.11,0000.22,-000.04,-000.06,0000.19,-000.02,0000.51,-000.12,18.8,24.8,06.9,04.8,0674.1,31.1
2021-07-03T11:32:00Z,00000200,00000000,0000.00,0000.28,0000.49,0000.31,0000.10,0000.10,0000.08,-000.09,-000.01,18.8,24.8,06.9,04.8,0674.1,31.1
2021-07-03T11:33:00Z,00000200,00000000,0000.70,0000.38,0000.49,-000.12,0000.21,0000.03,0000.09,0000.21,0000.67,18.7,24.8,07.0,04.8,0674.1,31.1
2021-07-03T11:34:00Z,00000200,00000000,0000.12,0000.29,0000.15,-000.13,-000.03,0000.02,0000.35,-000.01,-000.32,18.7,24.8,06.9,04.8,0674.1,31.1
2021-07-03T11:35:00Z,00000200,00000000,0000.29,0000.28,0000.62,-000.23,-000.08,0000.47,-000.06,-000.22,-000.02,18.7,24.8,07.0,04.8,0674.0,31.0
2021-07-03T11:36:00Z,00000200,00000000,0001.20,0000.77,0000.31,-000.23,0000.23,0000.04,-000.06,0000.06,0000.15,18.6,24.7,06.9,04.7,0674.0,31.0
2021-07-03T11:37:00Z,00000200,00000000,0000.08,0000.63,0000.21,0000.20,0000.19,0000.25,-000.14,-000.21,-000.36,18.6,24.7,07.0,04.8,0674.0,31.1
2021-07-03T11:38:00Z,00000200,00000000,0000.66,0000.49,-000.00,0000.34,-000.04,-000.07,-000.07,0000.52,0000.15,18.6,24.8,07.0,04.8,0674.0,31.1
2021-07-03T11:39:00Z,00000200,00000000,-000.24,0000.31,0000.06,-000.18,-000.24,0000.06,0000.39,-000.17,0000.03,18.7,24.8,07.1,04.9,0674.1,31.1
2021-07-03T11:40:00Z,00000200,00000000,0000.19,0000.13,0000.22,-000.28,0000.09,0000.16,0000.15,0000.30,0000.30,18.7,24.8,07.1,04.9,0674.1,31.1
2021-07-03T11:41:00Z,00000200,00000000,-000.37,0000.33,0000.67,0000.06,0000.16,0000.22,-000.12,0000.15,0000.05,18.7,24.8,07.1,04.9,0674.1,31.1
2021-07-03T11:42:00Z,00000200,00000000,0000.61,0000.48,0000.27,-000.25,0000.06,-000.12,0000.11,-000.41,0000.13,18.7,24.8,07.1,04.9,0674.1,31.1
2021-07-03T11:43:00Z,00000200,00000000,0000.51,0000.23,0000.40,0000.09,-000.00,0000.48,-000.27,0000.35,-000.12,18.7,24.8,07.1,04.9,0674.1,31.1
2021-07-03T11:44:00Z,00000200,00000000,0000.70,0000.48,0000.48,-000.10,0000.20,0000.23,0000.52,0000.20,0000.29,18.7,24.8,07.1,04.9,0674.0,31.1
2021-07-03T11:45:00Z,00000200,00000000,0000.14,0000.39,0000.07,0000.25,-000.23,-000.10,-000.04,0000.00,0000.01,18.7,24.8,07.1,04.9,0674.1,31.1
2021-07-03T11:46:00Z,00000200,00000000,-000.12,-000.08,0000.45,-000.11,0000.09,0000.12,0000.01,-000.07,-000.33,18.7,24.8,07.3,05.0,0674.0,31.1
2021-07-03T11:47:00Z,00000200,00000000,0000.64,0000.05,0000.16,0000.41,-000.07,0000.18,-000.28,0000.26,0000.30,18.7,24.8,07.3,05.0,0674.0,31.1
2021-07-03T11:48:00Z,00000200,00000000,0000.43,0000.18,0000.55,0000.03,-000.06,-000.17,0000.60,0000.37,0000.12,18.7,24.8,07.3,05.0,0674.0,31.1
2021-07-03T11:49:00Z,00000200,00000000,0000.15,0000.31,0000.14,0000.40,0000.06,0000.14,0000.15,-000.14,0000.07,18.7,24.8,07.2,05.0,0674.0,31.1
2021-07-03T11:50:00Z,00000200,00000000,-000.09,0000.29,0000.02,0000.12,0000.13,-000.14,-000.11,-000.02,0000.00,18.7,24.8,07.3,05.0,0673.9,31.1
2021-07-03T11:51:00Z,00000200,00000000,-000.02,0000.13,0000.37,0000.34,-000.06,0000.10,0000.35,-000.14,-000.12,18.7,24.8,07.3,05.0,0674.0,31.1
2021-07-03T11:52:00Z,00000200,00000000,0000.64,0000.03,0000.39,-000.46,-000.03,-000.12,-000.04,0000.31,0000.26,18.7,24.8,07.4,05.1,0674.0,31.1
2021-07-03T11:53:00Z,00000200,00000000,0001.04,0000.34,0000.15,-000.16,0000.06,0000.25,-000.12,-000.08,-000.12,18.7,24.7,07.3,05.0,0674.0,31.1
2021-07-03T11:54:00Z,00000200,00000000,0000.32,0000.37,0000.36,-000.04,0000.06,0000.37,0000.14,0000.08,-000.11,18.7,24.7,07.4,05.1,0674.0,31.1
2021-07-03T11:55:00Z,00000200,00000000,-000.82,0000.45,0000.18,-000.28,-000.04,0000.36,-000.38,-000.22,0000.08,18.7,24.8,07.3,05.0,0673.9,31.1
2021-07-03T11:56:00Z,00000200,00000000,0000.32,0000.37,0000.34,-000.45,-000.02,0000.10,0000.69,0000.35,-000.05,18.7,24.8,07.4,05.1,0674.0,31.1
2021-07-03T11:57:00Z,00000200,40000000,,,,,,,-000.27,-000.43,0000.20,18.7,24.8,08.0,05.5,0673.9,31.1
2021-07-03T11:58:00Z,00000200,60000000,,,,,,,0000.08,0000.30,0000.25,18.5,24.9,07.2,04.9,0673.0,31.1
2021-07-03T11:59:00Z,00000200,20000000,,,,,,,-000.15,-000.25,-000.25,18.5,25.0,07.1,04.8,0673.0,31.1
